Location: Mohawk View
(42.7837°N, 73.7885°W)
Time: 00:46:24
(UTC+00:00)

S3M - Pass Details

Date: 17 June 2021
Orbit: 950 x 1003 km, 83.0° (Epoch: 02 August)

Event Time Altitude Azimuth Distance (km) Brightness Sun altitude
Rises 07:51:14 0° 353° (N) 3,638 7.7 -12.5°
Reaches altitude 10° 07:53:44 10° 355° (N) 2,692 7.0 -12.2°
Maximum altitude 07:59:54 78° 82° (E) 987 4.1 -11.5°
Drops below altitude 10° 08:06:06 10° 169° (SSE) 2,705 6.0 -10.7°
Sets 08:08:37 0° 170° (S) 3,656 6.7 -10.4°
